Regional Weather Roundup
Issued by NWS State College, PA

Home | Current Version | Previous Version | Text Only | Print | Product List | Glossary On
Versions: 1 2 3 4 5 6 7 8 9 10 11 12 13 14 15 16 17 18 19 20 21 22 23 24 25 26 27 28 29 30 31 32 33 34 35 36 37 38 39 40 41 42 43 44 45 46 47 48 49 50
000
ASUS41 KCTP 210410
RWRCTP

REGIONAL WEATHER ROUNDUP
NATIONAL WEATHER SERVICE STATE COLLEGE PA
1100 PM EST MON FEB 20 2017

Note: "fair" indicates few or no clouds below 12,000 feet with no
significant weather and/or obstructions to visibility.

* = STATION THAT DOES NOT REPORT PRECIPITATION /E.G. RAIN...SNOW...ETC/
    THUNDER OR FOG.

PAZ002>004-007>009-013>016-020>023-029>032-210500-
WESTERN PENNSYLVANIA

CITY           SKY/WX    TMP DP  RH WIND       PRES   REMARKS
ERIE           PTCLDY    37  28  70 E6        30.17F
MEADVILLE      CLOUDY    45  28  51 E5        30.17F
FRANKLIN*      CLOUDY    43  27  52 E6        30.20F
NEW CASTLE     FAIR      46  30  53 SE3       30.18F
BEAVER COUNTY  NOT AVBL
BUTLER*        CLOUDY    46  30  53 E9        30.19F
PITTSBURGH INT CLOUDY    48  31  51 E6        30.17F
PITTSBURGH     PTCLDY    50  27  40 E7        30.17F
INDIANA*       CLEAR     41  32  70 E5        30.24F
LATROBE        PTCLDY    43  32  65 N6        30.20F
WASHINGTON CO* PTCLDY    39  34  81 CALM      30.20F
$$

PAZ004>006-010>012-017>019-024>028-033>037-041-042-045-046-049>053-210500-
CENTRAL PENNSYLVANIA

CITY           SKY/WX    TMP DP  RH WIND       PRES   REMARKS
BRADFORD       CLEAR     32  21  64 SE3       30.23F
DUBOIS         CLOUDY    40  23  50 E8        30.22F
CLEARFIELD       N/A    N/A N/A N/A MISG      30.25F
JOHNSTOWN      CLOUDY    45  28  51 E6        30.21F
ALTOONA        CLOUDY    46  28  49 NE5       30.26F
STATE COLLEGE  CLOUDY    39  23  53 NE3       30.29S
WILLIAMSPORT   PTCLDY    32  23  69 E3        30.34R
SELINSGROVE    PTCLDY    33  22  63 N3        30.34S
FT INDIANTOWN  PTCLDY    35  18  48 NE3       30.33S
CAPITAL CITY   PTCLDY    43  17  35 E6        30.33R
HARRISBURG     PTCLDY    41  22  46 CALM      30.32R
YORK           CLOUDY    28  26  92 CALM      30.32R
$$

PAZ038>040-043-044-047-048-054-055-060>062-067>071-210500-
EASTERN PENNSYLVANIA

CITY           SKY/WX    TMP DP  RH WIND       PRES   REMARKS
SCRANTON       CLOUDY    31  17  56 E3        30.33R
MOUNT POCONO   CLOUDY    26  15  63 S3        30.29R
ALLENTOWN      CLOUDY    34  14  43 NE6       30.36R
QUAKERTOWN*    CLOUDY    36  14  41 NE5       30.35S
READING        CLOUDY    41  14  33 N6        30.34R
LANCASTER      CLOUDY    38  18  44 NE10      30.33R
COATESVILLE    PTCLDY    41  12  30 NE3       30.34S
POTTSTOWN      PTCLDY    39  12  33 NE5       30.36R
BLUE BELL      PTCLDY    37  14  38 CALM      30.34S
DOYLESTOWN     CLEAR     38  11  32 NE5       30.34R
WILLOW GROVE   NOT AVBL
NORTH PHILA    CLEAR     38  13  35 NE6       30.37R
PHILADELPHIA   PTCLDY    44  12  27 NE10      30.35R
$$




USA.gov is the U.S. government's official web portal to all federal, state and local government web resources and services.